Columbus, OH

9:30 AM EST on February 12, 2016 (GMT -0500)
Port Columbus International

Weather History for KCMH - March, 2013

Change the Weather History Date:

Friday, March 29, 2013

  Actual Average Record
Temperature  
Mean Temperature 42 °F 47 °F  
Max Temperature 54 °F 57 °F 83 °F (1910)
Min Temperature 29 °F 37 °F 14 °F (1887)
Degree Days  
Heating Degree Days 23 18  
Month to date heating degree days 813 680  
Since 1 July heating degree days 4671 4675  
Cooling Degree Days 0 0  
Month to date cooling degree days 0 0  
Year to date cooling degree days 0 0  
Moisture  
Dew Point 27 °F    
Average Humidity 64    
Maximum Humidity 92    
Minimum Humidity 35    
Precipitation  
Precipitation 0.00 in 0.11 in 2.18 in (1974)
Month to date precipitation 3.05 2.79  
Year to date precipitation 7.12 7.77  
Snow  
Snow 0.00 in 0.10 in 1.90 in (1970)
Month to date snowfall 12.2 4.1  
Since 1 July snowfall 41.2 25.5  
Snow Depth 0.00 in    
Sea Level Pressure  
Sea Level Pressure 30.27 in    
Wind  
Wind Speed 4 mph (NW)    
Max Wind Speed 15 mph    
Max Gust Speed 21 mph    
Visibility 10 miles    
Events      
T = Trace of Precipitation, MM = Missing Value Source: NWS Daily Summary

Daily Weather History Graph

Daily Weather History Graph

Search for Another Location

Airport or City:

Trip Planner

Search our weather history database for the weather conditions in past years. The results will help you decide how hot, cold, wet, or windy it might be!

Date:

Astronomy

Mar. 29, 2013 Rise Set
Actual Time 7:19 AM EDT 7:53 PM EDT
Civil Twilight 6:52 AM EDT 8:20 PM EDT
Nautical Twilight 6:20 AM EDT 8:52 PM EDT
Astronomical Twilight 5:47 AM EDT 9:25 PM EDT
Moon 10:51 PM EDT (3/29) 8:28 AM EDT (3/29)
Length of Visible Light 13h 27m
Length of Day
12h 33m
Waning Gibbous, 93% of the Moon is Illuminated
Mar 29
Waning Gibbous
Apr 3
Last Quarter
Apr 10
New
Apr 18
First Quarter
Apr 25
Full

Hourly Weather History & Observations

Time (EDT) Temp. Windchill Dew Point Humidity Pressure Visibility Wind Dir Wind Speed Gust Speed Precip Events Conditions
12:51 AM 35.1 °F - 26.1 °F 70% 30.31 in 10.0 mi Calm Calm - N/A   Clear
1:51 AM 32.0 °F - 28.0 °F 85% 30.31 in 10.0 mi Calm Calm - N/A   Clear
2:51 AM 32.0 °F - 27.0 °F 82% 30.31 in 10.0 mi Calm Calm - N/A   Clear
3:51 AM 30.9 °F - 27.0 °F 85% 30.31 in 10.0 mi Calm Calm - N/A   Clear
4:51 AM 30.0 °F - 27.0 °F 88% 30.30 in 10.0 mi Calm Calm - N/A   Partly Cloudy
5:51 AM 30.2 °F - 26.6 °F 86% 30.28 in 10.0 mi Calm Calm - N/A   Scattered Clouds
6:51 AM 30.0 °F - 26.1 °F 85% 30.31 in 10.0 mi Calm Calm - N/A   Scattered Clouds
7:51 AM 28.9 °F - 26.1 °F 89% 30.32 in 9.0 mi Calm Calm - N/A   Partly Cloudy
8:51 AM 34.0 °F - 28.9 °F 82% 30.32 in 8.0 mi Calm Calm - N/A   Clear
9:51 AM 39.9 °F - 28.9 °F 65% 30.32 in 10.0 mi Calm Calm - N/A   Clear
10:51 AM 44.1 °F 42.5 °F 28.0 °F 53% 30.31 in 10.0 mi Variable 3.5 mph - N/A   Clear
11:51 AM 48.9 °F - 25.0 °F 39% 30.32 in 10.0 mi SW 5.8 mph - N/A   Partly Cloudy
12:51 PM 48.9 °F - 26.1 °F 41% 30.30 in 10.0 mi WNW 8.1 mph - N/A   Mostly Cloudy
1:51 PM 51.1 °F - 25.0 °F 36% 30.27 in 10.0 mi WNW 8.1 mph - N/A   Mostly Cloudy
2:51 PM 53.1 °F - 26.1 °F 35% 30.25 in 10.0 mi West 11.5 mph 19.6 mph N/A   Scattered Clouds
3:51 PM 53.1 °F - 28.0 °F 38% 30.23 in 10.0 mi West 11.5 mph - N/A   Mostly Cloudy
4:51 PM 52.0 °F - 27.0 °F 38% 30.22 in 10.0 mi NW 9.2 mph - N/A   Mostly Cloudy
5:51 PM 52.0 °F - 26.1 °F 37% 30.21 in 10.0 mi NNW 9.2 mph - N/A   Mostly Cloudy
6:51 PM 51.8 °F - 26.6 °F 38% 30.20 in 10.0 mi NW 9.2 mph - N/A   Mostly Cloudy
7:51 PM 50.0 °F - 26.1 °F 39% 30.22 in 10.0 mi WNW 11.5 mph - N/A   Scattered Clouds
8:51 PM 48.2 °F - 26.6 °F 43% 30.21 in 10.0 mi NNW 8.1 mph - N/A   Clear
9:51 PM 46.0 °F 44.8 °F 28.0 °F 50% 30.24 in 10.0 mi North 3.5 mph - N/A   Partly Cloudy
10:51 PM 43.0 °F 41.3 °F 28.0 °F 56% 30.25 in 10.0 mi North 3.5 mph - N/A   Clear
11:51 PM 39.0 °F - 28.0 °F 65% 30.24 in 10.0 mi Calm Calm - N/A   Clear